Temperature
16 16 16 17 17 17 17 17 17 17 17 17 17 17 17 16 16 16 16 15 15 15 15 15 15 15 15 15 15 15 15 15 15 15 15 15 14 14
16 16 16 16 16 16 17 17 17 17 17 17 17 17 17 16 16 16 16 15 15 15 15 15 15 15 15 15 15 15 15 15 15 15 15 14 14 14
16 16 16 16 16 16 16 16 16 16 17 17 17 17 17 16 16 16 15 15 15 15 15 15 15 15 15 15 15 15 15 15 15 15 15 14 14 14
16 16 15 16 16 16 16 16 16 16 16 16 16 16 16 16 16 16 16 15 15 15 15 15 15 15 15 15 15 15 15 15 15 15 15 15 14 14
16 15 15 15 15 15 15 16 16 16 16 16 16 16 16 16 15 15 15 15 15 15 15 15 15 15 15 15 15 15 15 15 15 15 15 15 14 14
15 15 15 15 15 15 15 15 15 15 15 15 15 15 16 15 15 15 15 15 15 15 15 15 15 15 15 15 15 15 15 15 15 15 15 15 14 14
16 15 15 15 15 15 15 15 15 15 15 15 15 15 15 15 15 15 15 15 15 15 15 15 15 15 15 15 15 15 15 15 15 14 14 14 14 14
15 15 15 15 15 15 15 15 14 14 14 14 14 14 15 15 15 15 14 14 14 15 14 15 15 14 15 14 14 15 15 14 14 14 14 14 14 14
15 15 15 15 15 14 14 14 14 14 14 14 14 14 14 14 14 14 14 14 14 14 14 14 14 14 14 14 14 14 14 14 14 14 14 14 14 14
15 14 14 14 14 14 14 14 14 14 14 13 13 14 13 13 13 13 13 13 13 14 13 13 14 14 14 14 14 14 14 14 14 14 13 13 13 13
14 14 14 14 14 14 13 13 13 13 13 13 13 13 13 13 13 13 12 12 12 13 13 13 13 13 13 13 13 13 13 13 13 13 13 13 13 13
14 13 13 13 13 13 13 13 13 13 12 12 12 12 12 12 12 12 12 12 11 11 12 12 12 12 12 12 12 12 13 13 13 12 12 12 12 12
13 13 13 13 12 12 12 12 12 12 12 12 12 12 12 12 12 12 12 11 11 11 11 11 11 11 11 11 11 11 11 12 12 12 12 12 12 11
12 12 12 12 12 12 11 11 11 11 11 11 11 11 11 11 11 11 11 11 11 10 11 10 10 10 10 10 10 10 11 11 11 11 11 11 11 11
11 11 11 11 11 11 11 11 10 10 10 10 10 10 10 10 10 10 10 10 10 10 10 10 10 10 9 9 9 9 10 10 10 10 10 10 10 10
11 11 11 10 10 10 10 10 10 10 9 9 9 9 9 9 9 9 9 9 9 9 9 9 9 9 9 9 9 9 9 9 9 9 9 9 10 10
10 10 10 10 9 9 9 9 9 9 9 9 8 8 8 8 8 8 8 8 8 8 8 9 8 8 8 8 8 8 8 8 8 8 9 9 9 9
9 9 9 9 9 8 8 8 8 8 8 7 7 7 7 7 7 7 7 7 7 7 7 7 7 7 8 8 8 8 8 8 8 8 8 8 8 9
9 8 8 8 7 7 7 7 7 7 7 6 6 6 6 6 6 6 6 6 6 6 6 6 6 6 6 6 7 7 7 7 7 7 7 7 7 8
7 7 7 7 7 6 6 6 6 6 6 6 6 5 5 5 5 5 5 5 5 5 5 5 5 5 5 5 6 6 7 7 7 7 7 7 7 7
6 6 6 6 6 5 5 5 5 5 5 5 5 5 5 5 4 4 4 4 4 4 4 5 5 5 5 5 5 6 6 6 6 6 6 6 6 6
6 5 5 5 5 5 4 4 4 4 4 4 4 4 4 3 3 3 3 3 3 3 4 4 4 4 4 4 4 5 5 5 6 6 6 6 6 6
4 4 4 4 4 3 3 3 3 3 3 3 3 3 3 3 3 2 3 3 3 3 3 3 3 3 4 4 4 4 4 4 5 5 5 6 6 6
Wind_Speed
4 4 3 3 2 2 2 2 1 2 2 3 3 5 8 10 16 15 13 17 17 16 15 14 13 13 12 12 12 11 11 11 12 12 12 12 13 13
3 3 3 3 2 2 2 2 2 2 2 1 3 4 5 8 15 14 12 16 20 19 18 18 17 16 16 16 15 15 14 14 14 14 13 13 13 14
5 4 4 4 3 3 2 2 3 3 3 3 2 3 4 3 6 10 10 12 15 21 22 22 21 20 20 19 18 17 17 17 16 16 16 15 15 15
6 6 6 5 4 3 3 3 3 2 2 3 2 1 3 5 6 6 8 11 13 18 24 25 25 24 23 21 21 20 20 19 19 18 18 18 17 17
6 6 5 5 5 4 4 4 3 4 3 3 4 3 3 4 5 6 7 6 11 13 19 24 25 25 25 24 23 23 22 22 21 21 20 20 19 18
5 5 5 5 5 5 5 4 4 5 4 3 4 4 3 4 3 4 5 5 7 9 10 13 19 24 26 26 25 24 24 24 23 22 22 21 20 20
4 4 5 5 5 5 5 3 4 4 4 4 5 4 4 3 3 3 4 4 5 5 4 5 7 9 14 20 24 25 25 25 24 23 23 22 21 21
5 4 5 5 5 6 6 5 3 4 4 4 4 4 4 3 3 3 3 4 5 3 3 5 4 5 7 12 17 22 25 25 25 24 24 23 23 22
4 4 5 4 4 4 5 6 6 8 7 4 5 5 5 4 3 4 4 5 6 5 5 7 6 6 7 13 16 19 21 23 24 24 24 24 23 23
2 2 2 2 2 1 3 4 5 6 7 7 7 7 6 4 4 5 6 6 7 6 6 7 7 7 8 8 12 15 18 21 22 24 24 24 24 24
2 1 1 1 1 2 2 3 4 4 6 8 9 10 11 10 7 4 5 6 7 7 5 6 6 6 5 5 9 12 14 17 19 20 22 23 24 23
1 2 3 2 1 2 2 3 4 5 5 6 6 9 10 11 12 8 7 7 7 6 4 3 4 4 5 5 4 6 9 13 17 19 21 22 22 15
1 1 2 2 2 2 2 3 4 5 5 6 6 6 5 5 5 6 6 6 7 7 5 4 4 5 5 5 5 5 5 5 8 11 16 21 22 15
2 2 2 1 2 3 3 3 5 5 4 5 5 4 4 3 3 3 5 7 8 8 9 6 5 5 6 8 7 5 5 5 6 6 8 14 17 20
3 4 2 2 3 3 3 4 4 3 3 4 5 4 4 4 3 3 4 5 7 10 12 9 7 6 6 7 7 7 7 6 6 7 6 6 6 6
4 3 3 3 3 3 2 2 2 2 3 3 4 5 5 4 4 4 4 5 5 5 6 9 7 6 6 7 7 8 7 6 6 8 8 7 6 8
4 3 1 1 1 2 2 2 2 2 2 3 4 5 5 5 4 4 4 5 5 6 6 5 5 6 6 7 7 8 8 8 7 7 7 8 7 7
4 3 3 4 4 4 4 4 3 4 4 4 4 5 5 6 6 6 5 6 6 6 6 6 6 6 6 6 8 8 7 7 7 7 8 9 10 8
3 4 4 5 5 6 6 6 6 5 5 5 5 5 5 6 6 6 6 6 6 6 7 7 6 6 8 9 7 7 7 8 8 8 8 8 9 8
5 5 6 6 6 6 6 6 6 6 6 5 6 6 5 6 6 6 6 6 7 7 8 7 6 6 7 9 9 10 12 9 8 9 9 8 8 10
7 7 7 7 6 6 6 6 6 6 6 6 6 6 6 7 7 7 7 8 8 7 8 8 7 9 8 7 8 8 8 11 12 9 9 9 10 10
7 7 7 7 7 7 7 7 7 7 8 8 8 8 7 7 8 9 8 8 8 8 9 8 8 8 7 8 10 11 11 10 12 16 16 14 10 9
7 7 7 7 7 7 7 8 9 8 8 9 9 9 9 8 8 8 8 8 8 9 9 9 8 8 8 8 9 10 12 12 10 10 9 13 17 19
Wind_Direction
234 223 250 282 287 315 327 331 308 284 243 203 175 179 171 161 170 187 191 199 204 210 216 221 226 230 235 239 243 246 248 250 253 255 256 256 255 254
239 244 226 272 278 260 286 302 303 291 286 242 206 185 174 180 181 196 203 203 209 215 220 224 228 232 236 241 244 247 250 251 253 255 257 257 257 256
225 219 222 260 299 307 264 249 257 259 268 278 250 168 160 170 170 212 219 210 215 221 224 227 229 232 236 240 244 246 248 250 252 253 255 257 257 257
219 221 215 224 223 263 291 291 275 264 261 278 284 229 204 198 189 213 232 233 231 228 225 227 230 233 236 240 244 246 248 250 252 253 255 256 257 257
216 217 219 227 224 229 233 267 286 277 238 252 263 252 238 224 203 221 244 253 260 249 229 227 230 233 237 240 243 246 247 249 251 252 254 255 256 257
225 222 223 222 221 231 241 244 265 283 286 271 273 267 255 241 217 225 251 246 253 263 247 233 231 235 238 240 242 245 247 248 249 250 251 253 255 257
227 228 229 224 224 222 237 236 247 250 262 261 262 267 263 262 243 239 259 269 258 255 257 252 234 235 242 244 245 248 247 247 248 249 250 252 253 255
226 231 236 227 223 222 231 239 238 250 258 268 271 271 274 275 272 266 269 280 278 271 270 271 259 246 242 244 244 242 242 244 245 247 248 251 253 254
226 233 248 243 205 214 228 238 246 246 236 249 267 277 292 302 305 294 284 279 276 288 294 278 270 265 261 264 254 246 244 241 241 243 245 248 250 253
232 229 231 277 293 250 237 237 241 245 236 234 242 252 263 279 283 281 279 279 269 265 260 268 271 267 270 272 269 256 248 246 245 245 246 248 251 252
245 247 227 193 348 323 270 272 271 266 256 248 244 251 255 258 258 273 275 275 276 272 257 256 267 273 274 277 279 273 262 257 254 254 252 252 253 255
186 118 76 88 62 1 303 286 280 287 294 286 265 263 256 253 243 233 248 260 271 277 274 279 283 296 287 277 280 293 286 271 262 259 259 260 261 258
23 88 82 69 36 352 298 281 281 293 293 284 278 271 262 254 244 235 237 245 258 265 287 312 302 291 277 288 295 288 284 280 275 270 266 263 260 246
15 33 39 8 319 300 288 294 305 301 288 291 289 285 284 286 280 269 261 252 251 258 271 274 271 275 282 285 286 288 292 290 285 274 271 272 265 256
19 27 3 293 287 272 249 277 298 300 304 306 306 310 312 308 310 301 290 279 271 268 270 264 260 264 262 271 279 283 291 287 276 278 279 276 267 260
360 336 294 267 278 310 308 271 260 289 305 311 321 322 323 323 317 316 310 309 297 291 280 277 268 263 270 274 278 282 279 276 280 280 279 279 279 276
340 316 333 6 12 7 355 354 342 347 344 336 329 322 318 320 320 325 319 309 300 298 304 306 300 287 269 272 277 277 280 281 280 285 292 291 284 278
355 359 13 13 12 6 356 354 1 4 352 339 333 331 332 330 326 326 319 310 308 311 314 318 321 317 305 285 262 277 284 288 293 291 289 288 286 279
18 18 19 15 11 10 5 1 358 356 350 343 341 336 332 327 323 320 319 322 324 322 319 316 313 312 308 302 296 290 296 295 293 290 284 281 283 285
31 25 24 21 17 13 7 360 351 347 348 340 333 330 328 323 320 319 321 325 321 315 311 309 311 313 304 299 298 296 285 281 285 287 288 286 283 282
29 29 24 19 14 11 3 356 350 345 346 339 335 336 334 329 324 322 319 320 315 309 309 309 310 309 299 294 293 294 296 294 292 286 290 292 292 290
27 25 23 17 14 11 6 1 357 354 351 349 347 343 339 334 328 325 322 318 313 310 309 309 311 313 309 302 301 302 304 305 301 291 279 269 274 280
26 18 14 14 15 9 3 358 357 356 357 354 349 342 335 328 322 317 314 312 312 312 313 314 314 312 309 303 302 303 305 308 307 305 299 294 284 276
Height
1557 1559 1560 1561 1562 1563 1564 1565 1566 1566 1566 1566 1566 1567 1567 1567 1567 1567 1567 1567 1567 1567 1568 1568 1568 1568 1568 1568 1568 1568 1568 1568 1569 1569 1569 1570 1570 1571
1555 1557 1558 1559 1560 1561 1562 1563 1564 1564 1564 1564 1565 1565 1565 1565 1565 1565 1565 1565 1565 1565 1565 1565 1565 1565 1565 1565 1565 1565 1565 1565 1565 1565 1565 1566 1566 1566
1553 1554 1555 1556 1557 1559 1560 1560 1561 1562 1562 1562 1563 1563 1563 1563 1563 1563 1562 1562 1562 1562 1562 1562 1562 1562 1561 1561 1561 1561 1561 1561 1561 1561 1561 1561 1561 1562
1551 1552 1553 1554 1554 1555 1556 1557 1558 1559 1559 1559 1560 1560 1560 1560 1560 1559 1559 1559 1559 1559 1558 1558 1558 1558 1558 1558 1557 1557 1557 1557 1557 1557 1557 1557 1557 1557
1548 1549 1550 1551 1551 1552 1553 1554 1555 1556 1556 1556 1556 1557 1556 1557 1556 1556 1556 1556 1556 1555 1555 1554 1554 1554 1554 1553 1553 1553 1552 1552 1552 1552 1552 1552 1552 1552
1546 1546 1547 1547 1548 1549 1549 1550 1551 1552 1552 1552 1552 1553 1553 1553 1553 1552 1551 1551 1551 1551 1551 1550 1550 1549 1549 1549 1548 1548 1548 1547 1547 1547 1547 1547 1546 1546
1542 1543 1543 1544 1544 1545 1546 1546 1547 1547 1548 1548 1548 1548 1549 1549 1548 1548 1547 1547 1547 1547 1546 1546 1545 1544 1544 1543 1543 1542 1542 1542 1541 1541 1541 1540 1540 1540
1538 1539 1539 1540 1540 1541 1542 1542 1543 1543 1543 1543 1543 1544 1544 1544 1544 1544 1543 1542 1541 1542 1541 1540 1540 1538 1538 1537 1537 1536 1536 1536 1535 1535 1535 1534 1534 1533
1534 1535 1535 1536 1536 1536 1537 1537 1538 1538 1538 1539 1538 1538 1539 1539 1539 1538 1538 1537 1536 1536 1536 1533 1533 1532 1532 1531 1531 1530 1530 1529 1529 1528 1528 1527 1527 1526
1530 1531 1531 1531 1532 1532 1532 1532 1532 1532 1533 1533 1533 1533 1533 1534 1533 1533 1532 1531 1530 1530 1530 1528 1527 1526 1525 1525 1525 1524 1523 1523 1522 1521 1521 1520 1519 1518
1527 1527 1527 1527 1527 1528 1528 1527 1527 1527 1527 1527 1527 1527 1527 1527 1527 1527 1525 1525 1523 1522 1523 1522 1520 1519 1518 1518 1518 1517 1516 1515 1515 1514 1513 1513 1512 1511
1523 1523 1524 1524 1524 1523 1523 1523 1522 1522 1522 1522 1521 1521 1521 1521 1520 1520 1519 1518 1517 1516 1517 1516 1514 1513 1510 1510 1510 1510 1509 1508 1507 1506 1505 1505 1504 1503
1520 1520 1520 1520 1520 1519 1519 1519 1518 1518 1517 1517 1516 1516 1515 1515 1515 1514 1513 1513 1512 1510 1511 1510 1508 1506 1505 1502 1502 1502 1501 1500 1499 1498 1497 1497 1496 1495
1517 1516 1516 1516 1516 1516 1515 1515 1514 1514 1513 1513 1512 1511 1511 1510 1509 1509 1508 1507 1506 1505 1504 1503 1502 1500 1498 1496 1494 1494 1494 1493 1492 1491 1489 1489 1488 1487
1514 1514 1514 1513 1513 1512 1512 1511 1511 1510 1509 1508 1508 1507 1506 1505 1504 1503 1502 1501 1500 1499 1498 1497 1496 1494 1493 1490 1488 1487 1486 1485 1484 1483 1482 1480 1479 1478
1512 1511 1511 1511 1510 1510 1509 1508 1508 1507 1506 1505 1504 1503 1502 1501 1499 1498 1497 1495 1494 1493 1492 1491 1489 1488 1486 1484 1482 1480 1479 1477 1476 1475 1474 1472 1471 1470
1511 1511 1510 1510 1509 1508 1507 1507 1506 1505 1503 1502 1501 1499 1498 1496 1495 1494 1492 1490 1489 1487 1486 1485 1483 1481 1480 1479 1476 1474 1472 1471 1469 1468 1466 1463 1462 1462
1511 1510 1510 1509 1508 1507 1506 1505 1504 1503 1501 1499 1498 1497 1495 1493 1491 1489 1488 1487 1485 1483 1481 1479 1477 1475 1473 1472 1472 1469 1466 1464 1462 1461 1459 1456 1453 1453
1511 1510 1510 1509 1508 1507 1506 1504 1503 1501 1499 1497 1495 1493 1491 1490 1488 1486 1484 1482 1480 1478 1476 1474 1473 1471 1468 1465 1464 1464 1461 1458 1456 1453 1451 1449 1446 1444
1511 1511 1510 1509 1507 1506 1504 1502 1501 1499 1497 1495 1493 1491 1489 1486 1484 1482 1480 1479 1476 1474 1472 1471 1469 1467 1465 1462 1458 1456 1456 1453 1450 1447 1444 1442 1439 1437
1512 1511 1509 1508 1507 1505 1503 1501 1500 1498 1496 1493 1491 1489 1486 1484 1481 1479 1477 1475 1473 1471 1468 1467 1465 1463 1460 1457 1453 1450 1449 1448 1445 1442 1438 1435 1431 1429
1512 1511 1509 1508 1506 1504 1502 1500 1497 1495 1493 1491 1488 1486 1483 1481 1478 1476 1474 1472 1469 1467 1464 1462 1460 1458 1455 1452 1449 1445 1442 1440 1437 1435 1433 1430 1426 1422
1512 1510 1509 1507 1504 1502 1500 1498 1496 1493 1491 1488 1485 1483 1480 1478 1475 1473 1470 1468 1465 1463 1460 1457 1455 1453 1450 1448 1444 1441 1437 1434 1430 1427 1425 1423 1421 1417